Beaufort, NC

1:24 AM EDT on May 23, 2017 (GMT -0400)
Smith

Weather History for KMRH - January, 2015

Change the Weather History Date:

Monday, January 5, 2015

  Actual Average Record
Temperature  
Mean Temperature 52 °F -  
Max Temperature 62 °F 55 °F 77 °F (1950)
Min Temperature 37 °F 37 °F 15 °F (1981)
Degree Days  
Heating Degree Days 14    
Growing Degree Days 2 (Base 50)    
Moisture  
Dew Point 37 °F    
Average Humidity 59    
Maximum Humidity 93    
Minimum Humidity 41    
Precipitation  
Precipitation 0.00 in - - ()
Sea Level Pressure  
Sea Level Pressure 30.29 in    
Wind  
Wind Speed 13 mph (NW)    
Max Wind Speed 21 mph    
Max Gust Speed 28 mph    
Visibility 10 miles    
Events      
Averages and records for this station are not official NWS values.
T = Trace of Precipitation, MM = Missing Value Source: NWS Daily Summary

Daily Weather History Graph

Daily Weather History Graph

Search for Another Location

Airport or City:

Trip Planner

Search our weather history database for the weather conditions in past years. The results will help you decide how hot, cold, wet, or windy it might be!

Date:

Astronomy

Jan. 05, 2015 Rise Set
Actual Time 7:14 AM EST 5:09 PM EST
Civil Twilight 6:46 AM EST 5:37 PM EST
Nautical Twilight 6:15 AM EST 6:08 PM EST
Astronomical Twilight 5:44 AM EST 6:39 PM EST
Moon 5:58 PM EST (1/5) 7:13 AM EST (1/5)
Length of Visible Light 10h 50m
Length of Day
9h 55m
Full, 100% of the Moon is Illuminated
Jan 5
Full
Jan 13
Last Quarter
Jan 20
New
Jan 26
First Quarter
Feb 3
Full

Hourly Weather History & Observations

Time (EST) Temp. Windchill Dew Point Humidity Pressure Visibility Wind Dir Wind Speed Gust Speed Precip Events Conditions
12:58 AM 62.1 °F - 59.0 °F 90% 30.05 in 10.0 mi WSW 12.7 mph - N/A   Clear
1:58 AM 60.1 °F - 57.9 °F 93% 30.07 in 9.0 mi WSW 8.1 mph - N/A   Clear
2:58 AM 61.0 °F - 53.1 °F 75% 30.10 in 10.0 mi West 13.8 mph - N/A   Clear
3:58 AM 60.1 °F - 53.1 °F 78% 30.13 in 10.0 mi West 13.8 mph - N/A   Clear
4:21 AM 59.0 °F - 46.0 °F 62% 30.14 in 10.0 mi NNW 19.6 mph - N/A   Mostly Cloudy
4:33 AM 57.9 °F - 45.0 °F 62% 30.14 in 10.0 mi NW 18.4 mph 24.2 mph N/A   Mostly Cloudy
4:58 AM 57.0 °F - 44.1 °F 62% 30.15 in 10.0 mi NW 16.1 mph - N/A   Scattered Clouds
5:58 AM 54.0 °F - 43.0 °F 66% 30.19 in 10.0 mi NNW 13.8 mph - N/A   Clear
6:58 AM 51.1 °F - 39.0 °F 63% 30.23 in 10.0 mi NNW 12.7 mph - N/A   Clear
7:58 AM 50.0 °F - 39.0 °F 66% 30.28 in 10.0 mi NNW 12.7 mph - N/A   Clear
8:58 AM 51.1 °F - 36.0 °F 56% 30.32 in 10.0 mi NNW 19.6 mph - N/A   Clear
9:58 AM 52.0 °F - 35.1 °F 53% 30.34 in 10.0 mi NW 20.7 mph 27.6 mph N/A   Clear
10:58 AM 52.0 °F - 34.0 °F 50% 30.35 in 10.0 mi NW 19.6 mph 26.5 mph N/A   Clear
11:58 AM 53.1 °F - 32.0 °F 45% 30.33 in 10.0 mi NNW 17.3 mph - N/A   Clear
12:58 PM 54.0 °F - 30.9 °F 41% 30.32 in 10.0 mi NNW 13.8 mph - N/A   Clear
1:58 PM 52.0 °F - 30.9 °F 45% 30.32 in 10.0 mi NW 11.5 mph - N/A   Clear
2:58 PM 54.0 °F - 32.0 °F 43% 30.34 in 10.0 mi NW 10.4 mph - N/A   Clear
3:58 PM 52.0 °F - 30.9 °F 45% 30.36 in 10.0 mi NNW 9.2 mph - N/A   Clear
4:58 PM 51.1 °F - 30.9 °F 46% 30.38 in 10.0 mi NW 6.9 mph - N/A   Clear
5:58 PM 48.9 °F - 32.0 °F 52% 30.39 in 10.0 mi West 4.6 mph - N/A   Clear
6:58 PM 48.9 °F - 30.9 °F 50% 30.41 in 10.0 mi NW 9.2 mph - N/A   Clear
7:58 PM 46.9 °F - 33.1 °F 59% 30.43 in 10.0 mi NW 8.1 mph - N/A   Clear
8:58 PM 43.0 °F 39.5 °F 28.0 °F 56% 30.44 in 10.0 mi North 5.8 mph - N/A   Clear
9:58 PM 43.0 °F 39.5 °F 26.1 °F 51% 30.45 in 10.0 mi North 5.8 mph - N/A   Clear
10:58 PM 41.0 °F 38.0 °F 25.0 °F 53% 30.45 in 10.0 mi North 4.6 mph - N/A   Clear
11:58 PM 37.9 °F - 27.0 °F 65% 30.43 in 10.0 mi Calm Calm - N/A   Clear